Time,TemperatureF,DewpointF,PressureIn,WindDirection,WindDirectionDegrees,WindSpeedMPH,WindSpeedGustMPH,Humidity,HourlyPrecipIn,Conditions,Clouds,dailyrainin,SoftwareType,DateUTC
2015-04-27 00:01:00,45.0,19.0,-100.00,East,90,3.0,4.0,37,-99.99,,,-99.99,,2015-04-27 05:01:00,
2015-04-27 00:31:00,46.0,21.0,-100.00,SE,125,4.0,5.0,37,-99.99,,,-99.99,,2015-04-27 05:31:00,
2015-04-27 00:42:00,46.0,21.0,-100.00,ESE,120,4.0,4.0,37,-99.99,,,-99.99,,2015-04-27 05:42:00,
2015-04-27 00:51:00,44.0,21.0,-100.00,ESE,120,2.0,4.0,39,-99.99,,,-99.99,,2015-04-27 05:51:00,
2015-04-27 01:01:00,43.0,21.0,-100.00,SE,130,3.0,4.0,43,-99.99,,,-99.99,,2015-04-27 06:01:00,
2015-04-27 01:11:00,42.0,21.0,-100.00,SE,130,4.0,6.0,42,-99.99,,,-99.99,,2015-04-27 06:11:00,
2015-04-27 01:21:00,43.0,21.0,-100.00,SE,135,3.0,6.0,42,-99.99,,,-99.99,,2015-04-27 06:21:00,
2015-04-27 01:31:00,43.0,23.0,-100.00,SE,130,3.0,4.0,43,-99.99,,,-99.99,,2015-04-27 06:31:00,
2015-04-27 01:42:00,44.0,23.0,-100.00,SE,135,4.0,5.0,43,-99.99,,,-99.99,,2015-04-27 06:42:00,
2015-04-27 01:51:00,42.0,23.0,-100.00,SE,140,4.0,4.0,45,-99.99,,,-99.99,,2015-04-27 06:51:00,
2015-04-27 02:01:00,41.0,23.0,-100.00,SSE,165,2.0,4.0,47,-99.99,,,-99.99,,2015-04-27 07:01:00,
2015-04-27 02:21:00,39.0,21.0,-100.00,WNW,300,2.0,7.0,48,-99.99,,,-99.99,,2015-04-27 07:21:00,
2015-04-27 03:01:00,37.0,19.0,-100.00,NNW,340,4.0,6.0,49,-99.99,,,-99.99,,2015-04-27 08:01:00,
2015-04-27 04:01:00,36.0,19.0,-100.00,East,85,6.0,9.0,52,-99.99,,,-99.99,,2015-04-27 09:01:00,
2015-04-27 04:11:00,35.0,21.0,-100.00,ENE,75,7.0,7.0,54,-99.99,,,-99.99,,2015-04-27 09:11:00,
2015-04-27 04:21:00,36.0,19.0,-100.00,East,95,6.0,8.0,52,-99.99,,,-99.99,,2015-04-27 09:21:00,
2015-04-27 04:41:00,36.0,19.0,-100.00,ESE,105,6.0,7.0,50,-99.99,,,-99.99,,2015-04-27 09:41:00,
2015-04-27 04:51:00,37.0,19.0,-100.00,East,95,6.0,9.0,50,-99.99,,,-99.99,,2015-04-27 09:51:00,
2015-04-27 05:01:00,35.0,19.0,-100.00,ESE,110,7.0,8.0,52,-99.99,,,-99.99,,2015-04-27 10:01:00,
2015-04-27 05:11:00,36.0,19.0,-100.00,ESE,120,8.0,9.0,52,-99.99,,,-99.99,,2015-04-27 10:11:00,
2015-04-27 05:21:00,36.0,19.0,-100.00,ESE,115,7.0,9.0,51,-99.99,,,-99.99,,2015-04-27 10:21:00,
2015-04-27 05:31:00,36.0,19.0,-100.00,SE,135,7.0,7.0,50,-99.99,,,-99.99,,2015-04-27 10:31:00,
2015-04-27 05:41:00,37.0,19.0,-100.00,SE,135,7.0,7.0,50,-99.99,,,-99.99,,2015-04-27 10:41:00,
2015-04-27 05:51:00,37.0,19.0,-100.00,SE,135,7.0,7.0,50,-99.99,,,-99.99,,2015-04-27 10:51:00,
2015-04-27 06:01:00,36.0,21.0,-100.00,SSE,150,6.0,7.0,53,-99.99,,,-99.99,,2015-04-27 11:01:00,
2015-04-27 06:11:00,39.0,21.0,-100.00,SSE,150,6.0,7.0,48,-99.99,,,-99.99,,2015-04-27 11:11:00,
2015-04-27 06:21:00,39.0,21.0,-100.00,SSE,150,6.0,7.0,48,-99.99,,,-99.99,,2015-04-27 11:21:00,
2015-04-27 06:31:00,38.0,21.0,-100.00,SSE,150,6.0,6.0,49,-99.99,,,-99.99,,2015-04-27 11:31:00,
2015-04-27 06:51:00,37.0,21.0,-100.00,South,170,6.0,7.0,52,-99.99,,,-99.99,,2015-04-27 11:51:00,
2015-04-27 07:01:00,37.0,21.0,-100.00,SSE,160,4.0,6.0,54,-99.99,,,-99.99,,2015-04-27 12:01:00,
2015-04-27 07:11:00,38.0,21.0,-100.00,South,170,4.0,6.0,53,-99.99,,,-99.99,,2015-04-27 12:11:00,
2015-04-27 07:21:00,39.0,23.0,-100.00,SSE,155,3.0,4.0,51,-99.99,,,-99.99,,2015-04-27 12:21:00,
2015-04-27 07:31:00,40.0,25.0,-100.00,SSE,165,3.0,6.0,52,-99.99,,,-99.99,,2015-04-27 12:31:00,
2015-04-27 07:52:00,41.0,25.0,-100.00,South,175,2.0,5.0,49,-99.99,,,-99.99,,2015-04-27 12:52:00,
2015-04-27 08:01:00,42.0,25.0,-100.00,South,170,4.0,6.0,48,-99.99,,,-99.99,,2015-04-27 13:01:00,
2015-04-27 08:12:00,43.0,25.0,-100.00,SSE,160,4.0,6.0,47,-99.99,,,-99.99,,2015-04-27 13:12:00,